TimeCST,TemperatureF,Dew PointF,Humidity,Sea Level PressureIn,VisibilityMPH,Wind Direction,Wind SpeedMPH,Gust SpeedMPH,PrecipitationIn,Events,Conditions,WindDirDegrees,DateUTC
12:56 AM,53.1,37.0,55,29.65,10.0,SSW,12.7,-,N/A,,Clear,200,2012-11-22 06:56:00
1:56 AM,52.0,36.0,54,29.64,10.0,SW,9.2,-,N/A,,Clear,220,2012-11-22 07:56:00
2:56 AM,50.0,36.0,59,29.64,10.0,SSW,9.2,-,N/A,,Clear,210,2012-11-22 08:56:00
3:56 AM,48.9,36.0,61,29.63,10.0,SW,4.6,-,N/A,,Clear,220,2012-11-22 09:56:00
4:56 AM,39.9,33.1,77,29.66,10.0,Calm,Calm,-,N/A,,Clear,0,2012-11-22 10:56:00
5:56 AM,42.1,33.1,70,29.66,10.0,WSW,3.5,-,N/A,,Clear,240,2012-11-22 11:56:00
6:56 AM,41.0,28.9,62,29.70,10.0,Calm,Calm,-,N/A,,Clear,0,2012-11-22 12:56:00
7:56 AM,42.1,30.9,65,29.74,10.0,WNW,12.7,-,N/A,,Clear,300,2012-11-22 13:56:00
8:56 AM,46.9,36.0,66,29.77,10.0,NNW,20.7,33.4,N/A,,Clear,330,2012-11-22 14:56:00
9:56 AM,46.9,36.0,66,29.81,10.0,NW,20.7,27.6,N/A,,Partly Cloudy,320,2012-11-22 15:56:00
10:52 AM,44.6,35.6,71,29.85,10.0,WNW,23.0,34.5,N/A,,Mostly Cloudy,300,2012-11-22 16:52:00
10:56 AM,44.1,35.1,71,29.87,10.0,WNW,24.2,32.2,N/A,,Mostly Cloudy,300,2012-11-22 16:56:00
11:48 AM,44.6,33.8,66,29.88,10.0,NW,26.5,39.1,N/A,,Mostly Cloudy,320,2012-11-22 17:48:00
11:56 AM,44.1,34.0,68,29.91,10.0,NW,29.9,40.3,N/A,,Overcast,320,2012-11-22 17:56:00
12:56 PM,41.0,33.1,73,29.94,10.0,NNW,23.0,33.4,N/A,,Overcast,330,2012-11-22 18:56:00
1:03 PM,41.0,33.8,76,29.92,10.0,NNW,21.9,31.1,0.00,Rain,Light Rain,330,2012-11-22 19:03:00
1:29 PM,39.2,33.8,81,29.94,10.0,NW,24.2,33.4,0.00,,Overcast,320,2012-11-22 19:29:00
1:56 PM,42.1,34.0,73,29.98,10.0,NW,24.2,29.9,0.00,,Overcast,310,2012-11-22 19:56:00
2:56 PM,41.0,35.1,79,30.00,10.0,NW,21.9,35.7,N/A,,Overcast,310,2012-11-22 20:56:00
3:56 PM,42.1,33.1,70,30.04,10.0,NW,21.9,34.5,N/A,,Mostly Cloudy,310,2012-11-22 21:56:00
4:03 PM,42.8,32.0,66,30.01,10.0,NW,23.0,34.5,N/A,,Scattered Clouds,310,2012-11-22 22:03:00
4:40 PM,39.2,30.2,70,30.04,10.0,NW,24.2,33.4,N/A,,Mostly Cloudy,310,2012-11-22 22:40:00
4:47 PM,39.2,30.2,70,30.05,10.0,NW,20.7,31.1,N/A,,Mostly Cloudy,310,2012-11-22 22:47:00
4:56 PM,41.0,30.9,67,30.08,10.0,NW,26.5,35.7,N/A,,Mostly Cloudy,310,2012-11-22 22:56:00
5:56 PM,39.0,28.9,67,30.12,10.0,NW,19.6,27.6,N/A,,Overcast,320,2012-11-22 23:56:00
6:56 PM,36.0,23.0,59,30.16,10.0,NW,23.0,48.3,N/A,,Overcast,320,2012-11-23 00:56:00
7:56 PM,32.0,23.0,69,30.17,10.0,NW,11.5,-,N/A,,Clear,310,2012-11-23 01:56:00
8:56 PM,32.0,21.9,66,30.18,10.0,NW,21.9,29.9,N/A,,Mostly Cloudy,320,2012-11-23 02:56:00
9:56 PM,30.0,17.1,59,30.22,10.0,NW,27.6,43.7,N/A,,Overcast,310,2012-11-23 03:56:00
10:56 PM,27.0,16.0,63,30.25,10.0,NW,32.2,44.9,N/A,,Overcast,320,2012-11-23 04:56:00
11:30 PM,26.6,15.8,64,30.23,10.0,NW,24.2,39.1,N/A,,Mostly Cloudy,310,2012-11-23 05:30:00
11:49 PM,26.6,15.8,64,30.23,10.0,NW,25.3,36.8,0.00,Snow,Light Snow,310,2012-11-23 05:49:00
11:56 PM,26.1,17.1,69,30.29,9.0,NW,20.7,36.8,0.00,Snow,Light Snow,320,2012-11-23 05:56:00